Regional Weather Roundup
Issued by NWS

Home | Current Version | Previous Version | Text Only | Print | Product List | Glossary On
Versions: 1 2 3 4 5 6 7 8 9 10 11 12 13 14 15 16 17 18 19 20 21 22 23 24 25 26 27 28 29 30 31 32 33 34 35 36 37 38 39 40 41 42 43 44 45 46 47 48 49 50
000
ASUS44 KLIX 140010
RWRLA
LOUISIANA WEATHER ROUNDUP
NATIONAL WEATHER SERVICE NEW ORLEANS LA
600 PM CST SAT FEB 13 2016

NOTE: "FAIR" INDICATES FEW OR NO CLOUDS BELOW 12,000 FEET WITH NO
      SIGNIFICANT WEATHER AND/OR OBSTRUCTIONS TO VISIBILITY.
      SKY/WX - SKY CONDITION AND SIGNIFICANT WEATHER.
      TMP - AIR TEMPERATURE.    DP   - DEWPOINT TEMPERATURE.
      RH  - RELATIVE HUMIDITY.  PRES - PRESSURE.
      HX  - HEAT INDEX.         WCI  - WIND CHILL INDEX.

*  THESE STATIONS ARE NOT NWS OR FAA STATIONS AND ARE NOT UNDER
   NWS QUALITY CONTROL.

LAZ040-048-061>063-065-066-069-140100-
SOUTHEAST LOUISIANA

CITY           SKY/WX    TMP DP  RH WIND       PRES   REMARKS
N.O. AUDUBON     N/A    N/A N/A N/A MISG        N/A
6HR MIN TEMP:  58; 6HR MAX TEMP:  62;

N.O. INTL ARPT PTCLDY    59  31  34 E3        30.33S
6HR MIN TEMP:  56; 6HR MAX TEMP:  62;

N.O. LAKEFRONT CLEAR     55  42  61 CALM      30.33F
6HR MIN TEMP:  54; 6HR MAX TEMP:  57; 6HR PCP: TRACE;

N.O. DOWNTOWN* NOT AVBL
RESERVE*       FAIR      56  35  45 SE3       30.34R
6HR MIN TEMP:  56; 6HR MAX TEMP:  64;

SLIDELL        CLEAR     54  41  61 S3        30.33S
6HR MIN TEMP:  54; 6HR MAX TEMP:  65;

BATON ROUGE    CLEAR     59  35  40 CALM      30.33R
6HR MIN TEMP:  58; 6HR MAX TEMP:  64;

BOOTHVILLE     PTCLDY    52  40  63 NE3       30.34S
6HR MIN TEMP:  52; 6HR MAX TEMP:  57;

BELLE CHASSE   PTCLDY    54  36  50 E3        30.33S
6HR MIN TEMP:  54; 6HR MAX TEMP:  62;

BOGALUSA*        N/A     55  34  45 CALM      30.35S
6HR MIN TEMP:  55; 6HR MAX TEMP:  62;

GALLIANO*      CLEAR     56  41  55 SE3       30.34R
6HR MIN TEMP:  56; 6HR MAX TEMP:  62;

NEW ROADS*     FAIR      56  40  55 NW3       30.33R
6HR MIN TEMP:  56; 6HR MAX TEMP:  63;

GONZALES*      FAIR      57  38  48 S5        30.32R
6HR MIN TEMP:  57; 6HR MAX TEMP:  64;

HAMMOND*       CLEAR     57  32  38 CALM      30.33R
HOUMA*         CLEAR     55  39  54 E3        30.34
PORT FOURCHON* CLEAR     55  41  58 E7        30.35R

$$

LAZ041-044-053-054-140100-
SOUTHWEST LOUISIANA

CITY           SKY/WX    TMP DP  RH WIND       PRES   REMARKS
LAKE CHARLES   CLOUDY    60  47  61 S6        30.31F
6HR MIN TEMP:  60; 6HR MAX TEMP:  68;

LAFAYETTE      CLEAR     62  37  39 CALM      30.32S
6HR MIN TEMP:  61; 6HR MAX TEMP:  66;

PATTERSON      CLEAR     59  37  44 E5        30.34R
6HR MIN TEMP:  59; 6HR MAX TEMP:  64;

SALT POINT       N/A     57  45  64 VRB3      30.32S
6HR MIN TEMP:  57; 6HR MAX TEMP:  65;

NEW IBERIA     CLEAR     58  39  49 S7        30.33S
6HR MIN TEMP:  58; 6HR MAX TEMP:  65;

CHENAULT AIRPK CLEAR     61  41  48 E3        30.31F

$$

LAZ027-028-140100-
CENTRAL LOUISIANA

CITY           SKY/WX    TMP DP  RH WIND       PRES   REMARKS
FORT POLK      PTCLDY    56  39  52 E6        30.30F HAZE
6HR MIN TEMP:  56; 6HR MAX TEMP:  63;

ALEXANDRIA INT PTCLDY    54  32  43 E7        30.33R
6HR MIN TEMP:  54; 6HR MAX TEMP:  59;

ALEXANDRIA     MOCLDY    55  31  39 E3        30.35R
6HR MIN TEMP:  55; 6HR MAX TEMP:  61;


$$

LAZ001-002-140100-
NORTHWEST LOUISIANA

CITY           SKY/WX    TMP DP  RH WIND       PRES   REMARKS
SHREVEPORT     CLOUDY    57  32  38 SE9       30.29F
6HR MIN TEMP:  53; 6HR MAX TEMP:  59;

BARKSDALE AFB  CLOUDY    54  31  42 E8        30.30S
6HR MIN TEMP:  53; 6HR MAX TEMP:  58;

DTN SHREVEPORT CLOUDY    55  30  38 E9        30.31R
6HR MIN TEMP:  51; 6HR MAX TEMP:  58;


$$

LAZ014-016-140100-
NORTHEAST LOUISIANA

CITY           SKY/WX    TMP DP  RH WIND       PRES   REMARKS
MONROE         CLEAR     45  18  34 E8        30.39R
6HR MIN TEMP:  45; 6HR MAX TEMP:  51;

TALLULAH       CLEAR     46  20  35 N6        30.37F
6HR MIN TEMP:  46; 6HR MAX TEMP:  53;


$$




USA.gov is the U.S. government's official web portal to all federal, state and local government web resources and services.